When you browse on this site, cookies collect data to enhance your experience and personalize the content and advertising you see.
Visit our Privacy Policy to learn more. By continuing to use the site, you agree to this use of cookies and data.
  • In Portugal
  • List of Countries
  • For 7 days
  • Water Temperature
  • Satellite Maps
  • Weather Map
  • Weather Widgets
  • user-avatar
    Login

    Hourly Weather Turnawiec

    Today, 27 March, Wednesday

    Time Temperature Precipitation Wind Pressure Humidity
    00:00 -1°C° 0 mm 4 mps 745 mmHg 79%
    01:00 -1°C° 0 mm 3 mps 745 mmHg 81%
    02:00 -1°C° 0 mm 3 mps 746 mmHg 82%
    03:00 -2°C° 0 mm 3 mps 746 mmHg 83%
    04:00 -4°C° 0 mm 3 mps 746 mmHg 83%
    05:00 -2°C° 0 mm 3 mps 747 mmHg 80%
    06:00 -2°C° 0 mm 3 mps 748 mmHg 78%
    07:00 -1°C° 0 mm 3 mps 748 mmHg 75%
    08:00 0°C° 0 mm 3 mps 749 mmHg 67%
    09:00 +2°C° 0 mm 3 mps 749 mmHg 59%
    10:00 +3°C° 0 mm 3 mps 749 mmHg 52%
    11:00 +4°C° 0 mm 3 mps 749 mmHg 47%
    12:00 +5°C° 0 mm 4 mps 749 mmHg 42%
    13:00 +6°C° 0 mm 4 mps 749 mmHg 38%
    14:00 +6°C° 0 mm 4 mps 749 mmHg 37%
    15:00 +6°C° 0 mm 4 mps 749 mmHg 36%
    16:00 +6°C° 0 mm 4 mps 749 mmHg 36%
    17:00 +5°C° 0 mm 3 mps 749 mmHg 42%
    18:00 +5°C° 0 mm 2 mps 749 mmHg 49%
    19:00 +4°C° 0 mm 2 mps 749 mmHg 56%
    20:00 +4°C° 0 mm 2 mps 749 mmHg 60%
    21:00 +3°C° 0 mm 2 mps 750 mmHg 64%
    22:00 +2°C° 0 mm 3 mps 750 mmHg 68%
    23:00 +3°C° 0.1 mm 3 mps 750 mmHg 72%

    Tomorrow, 28 March, Thursday

    Time Temperature Precipitation Wind Pressure Humidity
    00:00 +3°C° 0.1 mm 3 mps 750 mmHg 76%
    01:00 +3°C° 0.1 mm 4 mps 750 mmHg 80%
    02:00 +4°C° 0.4 mm 4 mps 750 mmHg 82%
    03:00 +4°C° 0.4 mm 4 mps 750 mmHg 85%
    04:00 +3°C° 0.4 mm 5 mps 750 mmHg 87%
    05:00 +3°C° 0.1 mm 5 mps 750 mmHg 87%
    06:00 +3°C° 0.1 mm 5 mps 750 mmHg 87%
    07:00 +3°C° 0.1 mm 5 mps 750 mmHg 87%
    08:00 +5°C° 0.1 mm 4 mps 750 mmHg 84%
    09:00 +6°C° 0.1 mm 4 mps 750 mmHg 82%
    10:00 +7°C° 0.1 mm 4 mps 751 mmHg 79%
    11:00 +8°C° 0.1 mm 4 mps 751 mmHg 75%
    12:00 +8°C° 0.1 mm 4 mps 751 mmHg 70%
    13:00 +10°C° 0.1 mm 3 mps 751 mmHg 65%
    14:00 +10°C° 0.1 mm 3 mps 751 mmHg 64%
    15:00 +10°C° 0.1 mm 3 mps 751 mmHg 62%
    16:00 +10°C° 0.1 mm 3 mps 751 mmHg 60%
    17:00 +9°C° 0.1 mm 2 mps 751 mmHg 66%
    18:00 +8°C° 0.1 mm 2 mps 752 mmHg 71%
    19:00 +8°C° 0.1 mm 2 mps 752 mmHg 76%
    20:00 +8°C° 0 mm 1 mps 752 mmHg 80%
    21:00 +7°C° 0 mm 1 mps 752 mmHg 84%
    22:00 +6°C° 0 mm 1 mps 753 mmHg 87%
    23:00 +5°C° 0 mm 0 mps 753 mmHg 88%

    Day after tomorrow, 29 March, Friday

    Time Temperature Precipitation Wind Pressure Humidity
    00:00 +4°C° 0 mm 0 mps 753 mmHg 88%
    01:00 +4°C° 0 mm 0 mps 753 mmHg 89%
    02:00 +4°C° 0 mm 0 mps 753 mmHg 90%
    03:00 +4°C° 0 mm 1 mps 753 mmHg 90%
    04:00 +4°C° 0 mm 1 mps 753 mmHg 91%
    05:00 +5°C° 0 mm 1 mps 753 mmHg 89%
    06:00 +5°C° 0 mm 1 mps 753 mmHg 88%
    07:00 +6°C° 0 mm 1 mps 753 mmHg 86%
    08:00 +6°C° 0 mm 2 mps 753 mmHg 78%
    09:00 +8°C° 0 mm 2 mps 753 mmHg 70%
    10:00 +10°C° 0 mm 2 mps 753 mmHg 62%
    11:00 +12°C° 0 mm 2 mps 753 mmHg 57%
    12:00 +13°C° 0 mm 2 mps 752 mmHg 52%
    13:00 +14°C° 0 mm 2 mps 752 mmHg 47%
    14:00 +14°C° 0 mm 2 mps 751 mmHg 46%
    15:00 +14°C° 0 mm 2 mps 751 mmHg 46%
    16:00 +14°C° 0 mm 2 mps 751 mmHg 45%
    17:00 +13°C° 0 mm 2 mps 751 mmHg 51%
    18:00 +10°C° 0 mm 2 mps 751 mmHg 57%
    19:00 +9°C° 0 mm 2 mps 751 mmHg 63%
    20:00 +9°C° 0 mm 1 mps 751 mmHg 66%
    21:00 +9°C° 0 mm 1 mps 751 mmHg 69%
    22:00 +8°C° 0 mm 1 mps 751 mmHg 72%
    23:00 +8°C° 0 mm 1 mps 750 mmHg 74%

    30 March, Saturday

    Time Temperature Precipitation Wind Pressure Humidity
    00:00 +8°C° 0 mm 1 mps 750 mmHg 77%
    01:00 +7°C° 0 mm 1 mps 750 mmHg 79%
    02:00 +7°C° 0 mm 1 mps 750 mmHg 81%
    03:00 +7°C° 0 mm 1 mps 750 mmHg 82%
    04:00 +6°C° 0 mm 1 mps 750 mmHg 84%
    05:00 +7°C° 0 mm 1 mps 750 mmHg 82%
    06:00 +8°C° 0 mm 1 mps 750 mmHg 80%
    07:00 +8°C° 0 mm 1 mps 750 mmHg 78%
    08:00 +10°C° 0 mm 1 mps 750 mmHg 72%
    09:00 +12°C° 0 mm 2 mps 749 mmHg 66%
    10:00 +13°C° 0 mm 2 mps 749 mmHg 60%
    11:00 +14°C° 0 mm 2 mps 749 mmHg 56%
    12:00 +15°C° 0 mm 2 mps 748 mmHg 52%
    13:00 +16°C° 0 mm 1 mps 748 mmHg 47%
    14:00 +18°C° 0 mm 1 mps 747 mmHg 46%
    15:00 +18°C° 0 mm 1 mps 747 mmHg 44%
    16:00 +18°C° 0 mm 1 mps 746 mmHg 42%
    17:00 +15°C° 0 mm 1 mps 746 mmHg 47%
    18:00 +14°C° 0 mm 1 mps 746 mmHg 51%
    19:00 +12°C° 0 mm 1 mps 746 mmHg 56%
    20:00 +12°C° 0 mm 1 mps 746 mmHg 59%
    21:00 +10°C° 0 mm 2 mps 745 mmHg 62%
    22:00 +9°C° 0 mm 2 mps 745 mmHg 64%
    23:00 +9°C° 0 mm 2 mps 745 mmHg 66%

    31 March, Sunday

    Time Temperature Precipitation Wind Pressure Humidity
    00:00 +8°C° 0 mm 2 mps 745 mmHg 68%
    01:00 +8°C° 0 mm 2 mps 744 mmHg 70%
    02:00 +8°C° 0 mm 2 mps 744 mmHg 70%
    03:00 +7°C° 0 mm 2 mps 744 mmHg 71%
    04:00 +7°C° 0 mm 2 mps 743 mmHg 71%
    05:00 +8°C° 0 mm 2 mps 743 mmHg 69%
    06:00 +8°C° 0 mm 3 mps 743 mmHg 67%
    07:00 +9°C° 0 mm 3 mps 743 mmHg 65%
    08:00 +11°C° 0 mm 3 mps 743 mmHg 58%
    09:00 +13°C° 0 mm 4 mps 742 mmHg 51%
    10:00 +15°C° 0 mm 5 mps 742 mmHg 44%
    11:00 +17°C° 0 mm 4 mps 742 mmHg 42%
    12:00 +18°C° 0 mm 4 mps 741 mmHg 40%
    13:00 +18°C° 0 mm 4 mps 741 mmHg 37%
    14:00 +18°C° 0 mm 4 mps 740 mmHg 38%
    15:00 +18°C° 0 mm 4 mps 740 mmHg 38%
    16:00 +18°C° 0 mm 4 mps 740 mmHg 39%
    17:00 +17°C° 0 mm 3 mps 740 mmHg 43%
    18:00 +14°C° 0 mm 3 mps 741 mmHg 48%
    19:00 +13°C° 0 mm 3 mps 741 mmHg 53%
    20:00 +11°C° 0.1 mm 4 mps 742 mmHg 61%
    21:00 +9°C° 0.1 mm 6 mps 742 mmHg 69%
    22:00 +6°C° 0.1 mm 7 mps 743 mmHg 78%
    23:00 +5°C° 0.1 mm 6 mps 744 mmHg 72%

    1 April, Monday

    Time Temperature Precipitation Wind Pressure Humidity
    00:00 +5°C° 0.1 mm 5 mps 744 mmHg 66%
    01:00 +4°C° 0.1 mm 4 mps 745 mmHg 60%
    02:00 +4°C° 0 mm 4 mps 745 mmHg 60%
    03:00 +3°C° 0 mm 4 mps 746 mmHg 61%
    04:00 +3°C° 0 mm 4 mps 746 mmHg 61%
    05:00 +1°C° 0 mm 4 mps 747 mmHg 63%
    06:00 +1°C° 0 mm 4 mps 747 mmHg 66%
    07:00 0°C° 0 mm 4 mps 748 mmHg 68%
    08:00 +1°C° 0 mm 4 mps 748 mmHg 62%
    09:00 +4°C° 0 mm 4 mps 748 mmHg 57%
    10:00 +5°C° 0 mm 4 mps 748 mmHg 51%
    11:00 +5°C° 0 mm 4 mps 748 mmHg 48%
    12:00 +6°C° 0 mm 4 mps 748 mmHg 45%
    13:00 +6°C° 0 mm 4 mps 747 mmHg 42%
    14:00 +6°C° 0 mm 4 mps 747 mmHg 41%
    15:00 +6°C° 0 mm 4 mps 747 mmHg 40%
    16:00 +6°C° 0 mm 4 mps 746 mmHg 39%
    17:00 +5°C° 0 mm 3 mps 746 mmHg 42%
    18:00 +4°C° 0 mm 3 mps 746 mmHg 45%
    19:00 +4°C° 0 mm 2 mps 746 mmHg 49%
    20:00 +3°C° 0 mm 2 mps 746 mmHg 50%
    21:00 +2°C° 0 mm 2 mps 746 mmHg 51%
    22:00 +2°C° 0 mm 2 mps 746 mmHg 52%
    23:00 +1°C° 0 mm 2 mps 746 mmHg 54%
    Show more